Regional Weather Roundup
Issued by NWS

Home | Current Version | Previous Version | Graphics & Text | Print | Product List | Glossary On
Versions: 1 2 3 4 5 6 7 8 9 10 11 12 13 14 15 16 17 18 19 20 21 22 23 24 25 26 27 28 29 30 31 32 33 34 35 36 37 38 39 40 41 42 43 44 45 46 47 48 49 50
000
ASUS43 KLMK 060810
RWRKY
KENTUCKY REGIONAL WEATHER ROUNDUP
NATIONAL WEATHER SERVICE LOUISVILLE KY
400 AM EDT WED MAY 06 2015

NOTE "FAIR" INDICATES FEW OR NO CLOUDS BELOW 12,000 FEET
WITH NO SIGNIFICANT WEATHER AND/OR OBSTRUCTIONS TO VISIBILITY.

KYZ001>023-026-027-061>063-070>075-060900-
WESTERN AND SOUTH CENTRAL KENTUCKY

CITY           SKY/WX    TMP DP  RH WIND       PRES   REMARKS
PADUCAH        CLEAR     59  54  83 CALM      30.14F
HENDERSON      CLEAR     57  54  88 CALM      30.16S
OWENSBORO      CLEAR     63  56  78 CALM      30.18S
HOPKINSVILLE   CLEAR     62  56  82 E2        30.17F
BOWLING GREEN  MOCLDY    61  56  83 CALM      30.19F
GLASGOW        MOCLDY    59  58  95 CALM      30.19F
$$

KYZ024-025-028>034-038-045-046-053-060900-
NORTH CENTRAL KENTUCKY

CITY           SKY/WX    TMP DP  RH WIND       PRES   REMARKS
LOUISVILLE/SDF PTCLDY    64  56  75 E3        30.19F
LOUISVILLE/LOU CLEAR     61  55  81 CALM      30.20S
FORT KNOX      PTCLDY    58  54  86 CALM      30.18S
$$

KYZ035>037-039>044-047>052-055>060-089>105-060900-
NORTHEAST KENTUCKY

CITY           SKY/WX    TMP DP  RH WIND       PRES   REMARKS
LEXINGTON      FAIR      61  54  77 SE3       30.21F
COVINGTON      CLEAR     59  54  83 CALM      30.20S
FRANKFORT      MOCLDY    57  53  86 CALM      30.20S
$$

KYZ054-064>069-076>088-106>120-060900-
SOUTHEAST KENTUCKY

CITY           SKY/WX    TMP DP  RH WIND       PRES   REMARKS
JACKSON        CLEAR     63  54  72 S5        30.23S
LONDON         PTCLDY    56  51  84 E3        30.23R HAZE
SOMERSET       CLEAR     55  54  94 CALM      30.23F
MIDDLESBORO    PTCLDY    56  55  94 CALM      30.25S
MONTICELLO     SUNNY     58  56  93 CALM      30.24F
$$



USA.gov is the U.S. government's official web portal to all federal, state and local government web resources and services.